Time,TemperatureF,DewpointF,PressureIn,WindDirection,WindDirectionDegrees,WindSpeedMPH,WindSpeedGustMPH,Humidity,HourlyPrecipIn,Conditions,Clouds,dailyrainin,SoftwareType,DateUTC
2013-03-20 00:07:00,19.3,18.0,29.73,NE,54,0.0,1.0,93,0.00,,,0.00,weatherlink.com 1.10,2013-03-20 04:07:00,
2013-03-20 00:22:00,19.2,18.0,29.73,NE,56,0.0,0.0,93,0.00,,,0.00,weatherlink.com 1.10,2013-03-20 04:22:00,
2013-03-20 00:37:00,19.2,18.0,29.72,NE,56,0.0,0.0,93,0.00,,,0.00,weatherlink.com 1.10,2013-03-20 04:37:00,
2013-03-20 00:52:00,19.2,18.0,29.72,NE,56,0.0,0.0,93,0.00,,,0.00,weatherlink.com 1.10,2013-03-20 04:52:00,
2013-03-20 01:07:00,19.2,18.0,29.71,NE,56,0.0,0.0,93,0.00,,,0.00,weatherlink.com 1.10,2013-03-20 05:07:00,
2013-03-20 01:22:00,19.2,18.0,29.71,ENE,57,0.0,0.0,93,0.00,,,0.00,weatherlink.com 1.10,2013-03-20 05:22:00,
2013-03-20 01:37:00,19.1,17.0,29.70,NE,56,0.0,0.0,93,0.00,,,0.00,weatherlink.com 1.10,2013-03-20 05:37:00,
2013-03-20 01:52:00,19.0,17.0,29.70,ENE,57,0.0,0.0,93,0.00,,,0.00,weatherlink.com 1.10,2013-03-20 05:52:00,
2013-03-20 02:07:00,18.9,17.0,29.70,NE,56,0.0,0.0,93,0.00,,,0.00,weatherlink.com 1.10,2013-03-20 06:07:00,
2013-03-20 02:22:00,18.9,17.0,29.70,ENE,57,0.0,0.0,93,0.00,,,0.00,weatherlink.com 1.10,2013-03-20 06:22:00,
2013-03-20 02:37:00,18.9,17.0,29.70,NE,56,0.0,0.0,93,0.00,,,0.00,weatherlink.com 1.10,2013-03-20 06:37:00,
2013-03-20 02:52:00,18.8,17.0,29.69,NE,56,0.0,0.0,93,0.00,,,0.00,weatherlink.com 1.10,2013-03-20 06:52:00,
2013-03-20 03:07:00,18.6,17.0,29.68,NE,56,0.0,0.0,93,0.00,,,0.00,weatherlink.com 1.10,2013-03-20 07:07:00,
2013-03-20 03:22:00,18.5,17.0,29.68,NE,56,0.0,0.0,94,0.00,,,0.00,weatherlink.com 1.10,2013-03-20 07:22:00,
2013-03-20 03:37:00,18.5,17.0,29.67,ENE,57,0.0,0.0,94,0.00,,,0.00,weatherlink.com 1.10,2013-03-20 07:37:00,
2013-03-20 03:53:00,18.5,17.0,29.68,NE,56,0.0,0.0,94,0.00,,,0.00,weatherlink.com 1.10,2013-03-20 07:53:00,
2013-03-20 04:07:00,18.6,17.0,29.67,NE,56,0.0,0.0,94,0.00,,,0.00,weatherlink.com 1.10,2013-03-20 08:07:00,
2013-03-20 04:22:00,18.5,17.0,29.67,NE,56,0.0,0.0,94,0.00,,,0.00,weatherlink.com 1.10,2013-03-20 08:22:00,
2013-03-20 04:37:00,18.4,17.0,29.67,NE,56,0.0,0.0,94,0.00,,,0.00,weatherlink.com 1.10,2013-03-20 08:37:00,
2013-03-20 04:52:00,18.3,17.0,29.67,ENE,57,0.0,0.0,94,0.00,,,0.00,weatherlink.com 1.10,2013-03-20 08:52:00,
2013-03-20 05:07:00,18.2,17.0,29.67,ENE,57,0.0,0.0,94,0.00,,,0.00,weatherlink.com 1.10,2013-03-20 09:07:00,
2013-03-20 05:22:00,18.1,17.0,29.68,ENE,57,0.0,1.0,94,0.00,,,0.00,weatherlink.com 1.10,2013-03-20 09:22:00,
2013-03-20 05:37:00,18.2,17.0,29.68,ENE,57,0.0,0.0,94,0.00,,,0.00,weatherlink.com 1.10,2013-03-20 09:37:00,
2013-03-20 05:52:00,18.3,17.0,29.68,ENE,57,0.0,1.0,95,0.00,,,0.00,weatherlink.com 1.10,2013-03-20 09:52:00,
2013-03-20 06:07:00,18.5,17.0,29.68,ENE,57,0.0,0.0,94,0.00,,,0.00,weatherlink.com 1.10,2013-03-20 10:07:00,
2013-03-20 06:22:00,18.8,18.0,29.68,ENE,57,0.0,0.0,95,0.00,,,0.00,weatherlink.com 1.10,2013-03-20 10:22:00,
2013-03-20 06:37:00,19.2,18.0,29.68,ENE,57,0.0,0.0,95,0.00,,,0.00,weatherlink.com 1.10,2013-03-20 10:37:00,
2013-03-20 06:52:00,19.1,18.0,29.68,ENE,58,0.0,0.0,95,0.00,,,0.00,weatherlink.com 1.10,2013-03-20 10:52:00,
2013-03-20 07:07:00,19.1,18.0,29.69,ENE,58,0.0,1.0,94,0.00,,,0.00,weatherlink.com 1.10,2013-03-20 11:07:00,
2013-03-20 07:22:00,19.3,18.0,29.69,ESE,109,0.0,0.0,95,0.00,,,0.00,weatherlink.com 1.10,2013-03-20 11:22:00,
2013-03-20 07:37:00,20.0,19.0,29.69,ESE,109,0.0,0.0,95,0.00,,,0.00,weatherlink.com 1.10,2013-03-20 11:37:00,
2013-03-20 07:52:00,20.8,19.0,29.69,SSW,198,0.0,0.0,94,0.00,,,0.00,weatherlink.com 1.10,2013-03-20 11:52:00,
2013-03-20 08:07:00,22.2,20.0,29.69,SSE,152,0.0,1.0,92,0.00,,,0.00,weatherlink.com 1.10,2013-03-20 12:07:00,
2013-03-20 08:22:00,23.1,21.0,29.69,SSE,160,0.0,1.0,90,0.00,,,0.00,weatherlink.com 1.10,2013-03-20 12:22:00,
2013-03-20 08:37:00,24.0,21.0,29.69,SSW,197,0.0,1.0,88,0.00,,,0.00,weatherlink.com 1.10,2013-03-20 12:37:00,
2013-03-20 08:52:00,24.2,21.0,29.69,SSE,164,0.0,1.0,87,0.00,,,0.00,weatherlink.com 1.10,2013-03-20 12:52:00,
2013-03-20 09:07:00,24.9,21.0,29.69,SE,125,0.0,1.0,85,0.00,,,0.00,weatherlink.com 1.10,2013-03-20 13:07:00,
2013-03-20 09:22:00,25.4,21.0,29.69,ENE,74,0.0,2.0,84,0.00,,,0.00,weatherlink.com 1.10,2013-03-20 13:22:00,
2013-03-20 09:38:00,27.2,22.0,29.69,West,265,0.0,1.0,80,0.00,,,0.00,weatherlink.com 1.10,2013-03-20 13:38:00,
2013-03-20 09:53:00,27.9,22.0,29.69,ENE,64,0.0,5.0,78,0.00,,,0.00,weatherlink.com 1.10,2013-03-20 13:53:00,
2013-03-20 10:08:00,27.7,21.0,29.69,South,171,1.0,4.0,76,0.00,,,0.00,weatherlink.com 1.10,2013-03-20 14:08:00,
2013-03-20 10:23:00,26.1,21.0,29.69,NNW,345,0.0,3.0,80,0.00,,,0.00,weatherlink.com 1.10,2013-03-20 14:23:00,
2013-03-20 10:38:00,25.7,21.0,29.69,West,267,0.0,0.0,82,0.00,,,0.00,weatherlink.com 1.10,2013-03-20 14:38:00,
2013-03-20 10:53:00,26.2,21.0,29.69,East,88,1.0,1.0,82,0.00,,,0.00,weatherlink.com 1.10,2013-03-20 14:53:00,
2013-03-20 11:08:00,25.2,21.0,29.69,SW,218,0.0,5.0,83,0.00,,,0.00,weatherlink.com 1.10,2013-03-20 15:08:00,
2013-03-20 11:23:00,25.8,22.0,29.69,SW,219,0.0,0.0,84,0.00,,,0.00,weatherlink.com 1.10,2013-03-20 15:23:00,
2013-03-20 11:38:00,25.5,21.0,29.69,SW,222,0.0,1.0,84,0.00,,,0.00,weatherlink.com 1.10,2013-03-20 15:38:00,
2013-03-20 11:53:00,26.2,21.0,29.69,South,184,0.0,3.0,82,0.00,,,0.00,weatherlink.com 1.10,2013-03-20 15:53:00,
2013-03-20 12:08:00,27.1,21.0,29.68,East,85,0.0,7.0,79,0.00,,,0.00,weatherlink.com 1.10,2013-03-20 16:08:00,
2013-03-20 12:23:00,28.2,21.0,29.68,South,189,0.0,2.0,75,0.00,,,0.00,weatherlink.com 1.10,2013-03-20 16:23:00,
2013-03-20 12:38:00,29.8,21.0,29.68,South,187,2.0,7.0,71,0.00,,,0.00,weatherlink.com 1.10,2013-03-20 16:38:00,
2013-03-20 12:53:00,28.3,21.0,29.68,NNE,28,0.0,5.0,73,0.00,,,0.00,weatherlink.com 1.10,2013-03-20 16:53:00,
2013-03-20 13:08:00,27.0,21.0,29.68,NNW,333,0.0,1.0,77,0.00,,,0.00,weatherlink.com 1.10,2013-03-20 17:08:00,
2013-03-20 13:23:00,27.1,21.0,29.68,ENE,67,0.0,9.0,78,0.00,,,0.00,weatherlink.com 1.10,2013-03-20 17:23:00,
2013-03-20 13:38:00,27.8,21.0,29.68,SSW,206,0.0,3.0,76,0.00,,,0.00,weatherlink.com 1.10,2013-03-20 17:38:00,
2013-03-20 13:53:00,29.6,22.0,29.68,NE,54,1.0,5.0,74,0.00,,,0.00,weatherlink.com 1.10,2013-03-20 17:53:00,
2013-03-20 14:08:00,28.7,21.0,29.67,SE,132,1.0,2.0,73,0.00,,,0.00,weatherlink.com 1.10,2013-03-20 18:08:00,
2013-03-20 14:23:00,27.4,21.0,29.68,WSW,253,0.0,8.0,78,0.00,,,0.00,weatherlink.com 1.10,2013-03-20 18:23:00,
2013-03-20 14:38:00,28.6,22.0,29.67,SE,134,0.0,1.0,76,0.00,,,0.00,weatherlink.com 1.10,2013-03-20 18:38:00,
2013-03-20 14:53:00,28.1,21.0,29.66,WSW,251,0.0,2.0,74,0.00,,,0.00,weatherlink.com 1.10,2013-03-20 18:53:00,
2013-03-20 15:08:00,28.4,21.0,29.66,NW,324,0.0,0.0,75,0.00,,,0.00,weatherlink.com 1.10,2013-03-20 19:08:00,
2013-03-20 15:23:00,28.9,21.0,29.66,South,185,0.0,4.0,73,0.00,,,0.00,weatherlink.com 1.10,2013-03-20 19:23:00,
2013-03-20 15:38:00,29.0,22.0,29.66,ESE,119,0.0,2.0,74,0.00,,,0.00,weatherlink.com 1.10,2013-03-20 19:38:00,
2013-03-20 15:53:00,28.9,22.0,29.66,ESE,118,0.0,3.0,76,0.00,,,0.00,weatherlink.com 1.10,2013-03-20 19:53:00,
2013-03-20 16:08:00,28.7,23.0,29.66,West,281,0.0,2.0,79,0.00,,,0.00,weatherlink.com 1.10,2013-03-20 20:08:00,
2013-03-20 16:23:00,28.4,23.0,29.66,ESE,118,0.0,0.0,81,0.00,,,0.00,weatherlink.com 1.10,2013-03-20 20:23:00,
2013-03-20 16:38:00,28.3,24.0,29.66,SE,133,0.0,2.0,82,0.00,,,0.00,weatherlink.com 1.10,2013-03-20 20:38:00,
2013-03-20 16:53:00,27.9,24.0,29.66,WSW,252,0.0,2.0,84,0.00,,,0.00,weatherlink.com 1.10,2013-03-20 20:53:00,
2013-03-20 17:08:00,27.6,24.0,29.67,SSE,159,0.0,0.0,86,0.00,,,0.00,weatherlink.com 1.10,2013-03-20 21:08:00,
2013-03-20 17:23:00,27.0,24.0,29.67,SE,141,0.0,0.0,88,0.00,,,0.00,weatherlink.com 1.10,2013-03-20 21:23:00,
2013-03-20 17:38:00,26.9,24.0,29.67,WSW,240,0.0,1.0,90,0.00,,,0.00,weatherlink.com 1.10,2013-03-20 21:38:00,
2013-03-20 17:53:00,27.0,25.0,29.67,SE,134,0.0,2.0,91,0.00,,,0.00,weatherlink.com 1.10,2013-03-20 21:53:00,
2013-03-20 18:09:00,27.0,25.0,29.67,WNW,288,0.0,1.0,91,0.00,,,0.00,weatherlink.com 1.10,2013-03-20 22:09:00,
2013-03-20 18:23:00,26.8,25.0,29.68,West,263,0.0,1.0,91,0.00,,,0.00,weatherlink.com 1.10,2013-03-20 22:23:00,
2013-03-20 18:38:00,26.7,25.0,29.68,NE,46,0.0,1.0,92,0.00,,,0.00,weatherlink.com 1.10,2013-03-20 22:38:00,
2013-03-20 18:53:00,26.6,25.0,29.69,SW,222,0.0,0.0,92,0.00,,,0.00,weatherlink.com 1.10,2013-03-20 22:53:00,
2013-03-20 19:08:00,26.3,24.0,29.70,West,270,0.0,1.0,92,0.00,,,0.00,weatherlink.com 1.10,2013-03-20 23:08:00,
2013-03-20 19:23:00,26.1,24.0,29.71,West,273,0.0,1.0,92,0.00,,,0.00,weatherlink.com 1.10,2013-03-20 23:23:00,
2013-03-20 19:38:00,26.0,24.0,29.71,SSW,206,0.0,1.0,93,0.00,,,0.00,weatherlink.com 1.10,2013-03-20 23:38:00,
2013-03-20 19:53:00,25.9,24.0,29.71,NW,306,0.0,1.0,93,0.00,,,0.00,weatherlink.com 1.10,2013-03-20 23:53:00,
2013-03-20 20:08:00,25.7,24.0,29.71,West,260,0.0,2.0,93,0.00,,,0.00,weatherlink.com 1.10,2013-03-21 00:08:00,
2013-03-20 20:23:00,25.4,24.0,29.72,SW,219,0.0,2.0,93,0.00,,,0.00,weatherlink.com 1.10,2013-03-21 00:23:00,
2013-03-20 20:38:00,25.3,24.0,29.72,South,169,0.0,3.0,93,0.00,,,0.00,weatherlink.com 1.10,2013-03-21 00:38:00,
2013-03-20 20:53:00,24.8,23.0,29.73,SE,132,0.0,1.0,92,0.00,,,0.00,weatherlink.com 1.10,2013-03-21 00:53:00,
2013-03-20 21:08:00,24.6,23.0,29.73,SW,226,0.0,2.0,92,0.00,,,0.00,weatherlink.com 1.10,2013-03-21 01:08:00,
2013-03-20 21:23:00,23.9,21.0,29.73,SSE,163,0.0,1.0,90,0.00,,,0.00,weatherlink.com 1.10,2013-03-21 01:23:00,
2013-03-20 21:38:00,22.7,21.0,29.73,SSE,163,0.0,1.0,91,0.00,,,0.00,weatherlink.com 1.10,2013-03-21 01:38:00,
2013-03-20 21:53:00,22.0,20.0,29.73,ENE,69,0.0,1.0,90,0.00,,,0.00,weatherlink.com 1.10,2013-03-21 01:53:00,
2013-03-20 22:08:00,21.3,19.0,29.73,SE,130,0.0,1.0,89,0.00,,,0.00,weatherlink.com 1.10,2013-03-21 02:08:00,
2013-03-20 22:23:00,20.6,18.0,29.73,SE,130,0.0,1.0,88,0.00,,,0.00,weatherlink.com 1.10,2013-03-21 02:23:00,
2013-03-20 22:38:00,20.0,17.0,29.73,NNE,32,0.0,1.0,87,0.00,,,0.00,weatherlink.com 1.10,2013-03-21 02:38:00,
2013-03-20 22:53:00,19.5,16.0,29.73,NE,39,0.0,1.0,87,0.00,,,0.00,weatherlink.com 1.10,2013-03-21 02:53:00,
2013-03-20 23:08:00,19.2,16.0,29.73,ENE,66,0.0,1.0,87,0.00,,,0.00,weatherlink.com 1.10,2013-03-21 03:08:00,
2013-03-20 23:23:00,18.8,16.0,29.73,ENE,65,0.0,1.0,88,0.00,,,0.00,weatherlink.com 1.10,2013-03-21 03:23:00,
2013-03-20 23:38:00,19.0,16.0,29.73,NNE,24,0.0,1.0,88,0.00,,,0.00,weatherlink.com 1.10,2013-03-21 03:38:00,
2013-03-20 23:53:00,18.6,16.0,29.73,NNE,24,0.0,0.0,89,0.00,,,0.00,weatherlink.com 1.10,2013-03-21 03:53:00,